DW6723 Weather Reports


Display with metric or nautical units.
time (UTC)temp
F
wind
direction
speed
MPH
gust
MPH
rain 1hr
in
rain 24hr
in
rain mn
in
humidity
%
barometer
mb
20260831003034 76 259 2.0 6.0 0.00 0.00 0.00 61 1015.2
20260831001518 76 250 4.0 9.0 0.00 0.00 0.00 60 1015.0
20260831000021 76 211 2.0 5.0 0.00 0.00 0.00 59 1014.8
20260830234515 77 260 2.0 7.0 0.00 0.00 0.00 58 1014.6
20260830233014 77 360 3.0 5.0 0.00 0.00 0.00 58 1014.7
20260830231516 77 246 3.0 5.0 0.00 0.00 0.00 57 1014.6
20260830230011 77 214 3.0 7.0 0.00 0.00 0.00 57 1014.7
20260830224508 78 238 3.0 7.0 0.00 0.00 0.00 57 1015.0
20260830223007 78 234 3.0 6.0 0.00 0.00 0.00 56 1015.1
20260830221608 78 283 4.0 8.0 0.00 0.00 0.00 56 1015.1
20260830220047 79 232 2.0 10.0 0.00 0.00 0.00 55 1015.0
20260830214547 79 215 3.0 7.0 0.00 0.00 0.00 55 1015.1
20260830213046 79 241 3.0 10.0 0.00 0.00 0.00 54 1015.3
20260830211528 79 213 4.0 10.0 0.00 0.00 0.00 53 1015.3
20260830210010 80 251 5.0 10.0 0.00 0.00 0.00 51 1015.4
20260830204512 80 193 6.0 15.0 0.00 0.00 0.00 50 1015.4
20260830203012 80 221 4.0 7.0 0.00 0.00 0.00 51 1015.5
20260830201504 80 298 5.0 9.0 0.00 0.00 0.00 50 1015.6
20260830200003 81 232 5.0 9.0 0.00 0.00 0.00 50 1015.6
20260830194502 81 279 2.0 9.0 0.00 0.00 0.00 50 1015.8
20260830193058 81 268 3.0 7.0 0.00 0.00 0.00 49 1016.2
20260830191557 81 288 2.0 10.0 0.00 0.00 0.00 48 1016.3
20260830190045 80 290 5.0 11.0 0.00 0.00 0.00 48 1016.4
20260830184548 81 360 5.0 13.0 0.00 0.00 0.00 48 1016.6
20260830183041 81 290 5.0 13.0 0.00 0.00 0.00 48 1016.8
20260830181540 81 230 4.0 14.0 0.00 0.00 0.00 49 1017.0
20260830180040 81 239 4.0 12.0 0.00 0.00 0.00 50 1017.1
20260830174537 80 328 7.0 14.0 0.00 0.00 0.00 50 1017.2
20260830173040 80 284 5.0 14.0 0.00 0.00 0.00 50 1017.3
20260830171535 80 290 7.0 19.0 0.00 0.00 0.00 50 1017.4
20260830170022 81 321 8.0 18.0 0.00 0.00 0.00 50 1017.5
20260830164522 81 284 5.0 11.0 0.00 0.00 0.00 50 1017.4
20260830163025 81 292 6.0 15.0 0.00 0.00 0.00 49 1017.4
20260830161519 81 277 4.0 9.0 0.00 0.00 0.00 53 1017.4
20260830160014 79 259 5.0 10.0 0.00 0.00 0.00 56 1017.6
20260830154512 78 360 6.0 13.0 0.00 0.00 0.00 55 1017.8
20260830153010 78 240 6.0 11.0 0.00 0.00 0.00 55 1017.9
20260830151509 78 316 4.0 11.0 0.00 0.00 0.00 56 1018.2
20260830150113 78 294 2.0 9.0 0.00 0.00 0.00 56 1018.1
20260830144546 77 244 5.0 11.0 0.00 0.00 0.00 56 1018.2
20260830143038 76 262 6.0 14.0 0.00 0.00 0.00 57 1018.4
20260830141529 75 287 4.0 10.0 0.00 0.00 0.00 59 1018.6
20260830140028 75 360 4.0 8.0 0.00 0.00 0.00 59 1018.7
20260830134536 74 250 7.0 13.0 0.00 0.00 0.00 59 1018.6
20260830133023 73 265 8.0 13.0 0.00 0.00 0.00 61 1018.8
20260830131522 71 228 5.0 14.0 0.00 0.00 0.00 64 1019.1
20260830130020 69 252 4.0 8.0 0.00 0.00 0.00 66 1019.2
20260830124523 69 225 6.0 10.0 0.00 0.00 0.00 65 1019.3
20260830123007 69 254 4.0 8.0 0.00 0.00 0.00 67 1019.4
20260830121506 68 315 4.0 8.0 0.00 0.00 0.00 69 1019.5
20260830120015 67 275 5.0 10.0 0.00 0.00 0.00 69 1019.6
20260830114506 66 248 4.0 10.0 0.00 0.00 0.00 71 1019.6
20260830113004 65 261 2.0 6.0 0.00 0.00 0.00 73 1019.7
20260830111504 64 271 3.0 7.0 0.00 0.00 0.00 74 1019.6
20260830110005 64 263 2.0 8.0 0.00 0.00 0.00 74 1019.6
20260830104503 63 246 3.0 8.0 0.00 0.00 0.00 74 1019.4
20260830103046 63 268 4.0 8.0 0.00 0.00 0.00 74 1019.4
20260830101549 64 248 3.0 7.0 0.00 0.00 0.00 74 1019.5
20260830100035 64 233 2.0 5.0 0.00 0.00 0.00 74 1019.4
20260830094533 64 245 2.0 4.0 0.00 0.00 0.00 74 1019.6
20260830093035 63 246 2.0 5.0 0.00 0.00 0.00 74 1019.6
20260830091531 63 272 2.0 5.0 0.00 0.00 0.00 74 1019.9
20260830090051 63 258 1.0 5.0 0.00 0.00 0.00 74 1020.0
20260830084530 63 234 3.0 6.0 0.00 0.00 0.00 75 1020.1
20260830083039 62 252 2.0 6.0 0.00 0.00 0.00 77 1020.2
20260830081528 62 233 1.0 5.0 0.00 0.00 0.00 77 1020.1
20260830080005 62 246 2.0 5.0 0.00 0.00 0.00 77 1020.1
20260830074506 62 248 3.0 5.0 0.00 0.00 0.00 78 1020.0
20260830073052 61 246 2.0 4.0 0.00 0.00 0.00 80 1020.0
20260830071558 61 239 2.0 4.0 0.00 0.00 0.00 80 1020.0
20260830070051 61 228 1.0 4.0 0.00 0.00 0.00 82 1020.1
20260830064551 60 235 1.0 3.0 0.00 0.00 0.00 83 1020.0
20260830063052 60 242 2.0 4.0 0.00 0.00 0.00 84 1020.0
20260830061553 60 259 3.0 4.0 0.00 0.00 0.00 84 1020.2
20260830060049 60 263 1.0 5.0 0.00 0.00 0.00 85 1020.3
20260830054553 60 234 4.0 6.0 0.00 0.00 0.00 86 1020.4
20260830053037 61 262 3.0 6.0 0.00 0.00 0.00 87 1020.3
20260830051537 60 267 0.0 3.0 0.00 0.00 0.00 87 1020.3
20260830050043 61 268 1.0 2.0 0.00 0.00 0.00 87 1020.2
20260830044542 61 277 0.0 2.0 0.00 0.00 0.00 87 1020.3
20260830043035 61 269 1.0 3.0 0.00 0.00 0.00 87 1020.4
20260830041544 61 232 0.0 2.0 0.00 0.00 0.00 87 1020.4
20260830040030 62 259 1.0 3.0 0.00 0.00 0.00 87 1020.4
20260830034543 62 265 1.0 4.0 0.00 0.00 0.00 88 1020.5
20260830033010 62 262 1.0 3.0 0.00 0.00 0.00 87 1020.5
20260830031509 63 217 1.0 4.0 0.00 0.00 0.00 87 1020.5
20260830030135 63 268 2.0 5.0 0.00 0.00 0.00 87 1020.5
20260830024558 63 259 1.0 3.0 0.00 0.00 0.00 86 1020.5
20260830023055 63 248 1.0 3.0 0.00 0.00 0.00 86 1020.5
20260830021554 63 298 1.0 4.0 0.00 0.00 0.00 85 1020.5
20260830020053 64 237 1.0 3.0 0.00 0.00 0.00 83 1020.5
20260830014607 64 263 0.0 3.0 0.00 0.00 0.00 82 1020.5
20260830013101 65 250 0.0 2.0 0.00 0.00 0.00 81 1020.4
20260830011547 65 236 1.0 5.0 0.00 0.00 0.00 80 1020.5
20260830010037 65 229 2.0 8.0 0.00 0.00 0.00 78 1020.6
20260830004529 66 252 1.0 5.0 0.00 0.00 0.00 77 1020.6